GW7935 Weather Reports


time (UTC)temp
C
wind
direction
speed
KPH
gust
KPH
rain 1hr
cm
rain 24hr
cm
rain mn
cm
humidity
%
barometer
mb
20260901162247 23 343 1.6 3.2 0.00 0.00 0.00 58 1024.4
20260901161746 23 26 1.6 3.2 0.00 0.00 0.00 59 1024.4
20260901161246 23 106 1.6 3.2 0.00 0.00 0.00 60 1024.5
20260901160746 22 63 3.2 3.2 0.00 0.00 0.00 61 1024.7
20260901160246 22 18 0.0 3.2 0.00 0.00 0.00 61 1025.0
20260901155746 22 80 3.2 3.2 0.00 0.00 0.00 61 1024.9
20260901155246 22 50 1.6 4.8 0.00 0.00 0.00 62 1024.8
20260901154746 22 43 3.2 4.8 0.00 0.00 0.00 63 1025.1
20260901154246 22 142 3.2 4.8 0.00 0.00 0.00 63 1025.0
20260901153746 22 229 0.0 3.2 0.00 0.00 0.00 63 1025.0
20260901153246 21 186 1.6 1.6 0.00 0.00 0.00 64 1025.0
20260901152747 21 153 3.2 3.2 0.00 0.00 0.00 66 1025.2
20260901152246 21 353 0.0 3.2 0.00 0.00 0.00 66 1025.2
20260901151746 20 0 0.0 3.2 0.00 0.00 0.00 67 1025.3
20260901151244 20 72 0.0 3.2 0.00 0.00 0.00 69 1025.4
20260901150745 20 138 4.8 4.8 0.00 0.00 0.00 69 1025.4
20260901150244 20 97 1.6 3.2 0.00 0.00 0.00 70 1025.5
20260901145744 19 88 1.6 3.2 0.00 0.00 0.00 71 1025.6
20260901145244 19 89 1.6 3.2 0.00 0.00 0.00 71 1025.5
20260901144744 18 142 3.2 4.8 0.00 0.00 0.00 72 1025.4
20260901144244 18 116 0.0 3.2 0.00 0.00 0.00 72 1025.7
20260901143744 18 148 3.2 3.2 0.00 0.00 0.00 73 1025.6
20260901143245 18 194 1.6 4.8 0.00 0.00 0.00 72 1025.3
20260901142744 18 147 3.2 3.2 0.00 0.00 0.00 71 1025.4
20260901142244 18 124 3.2 4.8 0.00 0.00 0.00 71 1025.2
20260901141744 18 150 6.4 8.0 0.00 0.00 0.00 71 1025.2
20260901141244 18 120 4.8 4.8 0.00 0.00 0.00 71 1024.9
20260901140745 18 112 3.2 3.2 0.00 0.00 0.00 72 1025.2
20260901140244 17 148 3.2 3.2 0.00 0.00 0.00 72 1024.9
20260901135744 17 185 3.2 6.4 0.00 0.00 0.00 71 1025.3
20260901135244 17 182 3.2 6.4 0.00 0.00 0.00 69 1025.2
20260901134745 17 341 1.6 4.8 0.00 0.00 0.00 66 1024.9
20260901134244 19 263 4.8 6.4 0.00 0.00 0.00 62 1024.2
20260901133744 21 220 4.8 6.4 0.00 0.00 0.00 58 1023.4
20260901133244 22 142 4.8 4.8 0.00 0.00 0.00 58 1022.9
20260901132744 22 117 3.2 4.8 0.00 0.00 0.00 67 1023.2
20260901132244 20 101 4.8 6.4 0.00 0.00 0.00 74 1023.6
20260901131745 17 84 4.8 4.8 0.00 0.00 0.00 81 1024.2
20260901131245 16 152 0.0 3.2 0.00 0.00 0.00 87 1024.5
20260901130745 14 248 3.2 3.2 0.00 0.00 0.00 91 1024.8
20260901130244 12 70 0.0 6.4 0.00 0.00 0.00 90 1025.5
20260901125744 12 150 4.8 6.4 0.00 0.00 0.00 89 1025.6
20260901125244 12 235 3.2 4.8 0.00 0.00 0.00 89 1025.6
20260901124744 12 126 3.2 6.4 0.00 0.00 0.00 89 1025.7
20260901124245 12 1 1.6 4.8 0.00 0.00 0.00 90 1025.4
20260901123744 12 15 4.8 8.0 0.00 0.00 0.00 90 1025.6
20260901123244 12 22 6.4 8.0 0.00 0.00 0.00 90 1025.4
20260901122745 12 51 8.0 8.0 0.00 0.00 0.00 90 1025.4
20260901122245 12 67 6.4 8.0 0.00 0.00 0.00 90 1025.3
20260901121744 12 19 4.8 4.8 0.00 0.00 0.00 90 1025.5
20260901121243 12 105 8.0 9.7 0.00 0.00 0.00 90 1025.1
20260901120743 12 74 4.8 4.8 0.00 0.00 0.00 89 1025.3
20260901120243 12 93 0.0 3.2 0.00 0.00 0.00 88 1025.1
20260901115743 12 106 3.2 4.8 0.00 0.00 0.00 88 1025.1
20260901115243 12 203 3.2 3.2 0.00 0.00 0.00 88 1025.0
20260901114743 12 80 0.0 4.8 0.00 0.00 0.00 88 1025.0
20260901114244 12 114 1.6 4.8 0.00 0.00 0.00 89 1025.0
20260901113743 12 118 6.4 8.0 0.00 0.00 0.00 89 1025.1
20260901113243 13 89 6.4 8.0 0.00 0.00 0.00 89 1024.8
20260901112744 13 98 3.2 3.2 0.00 0.00 0.00 88 1024.6
20260901112244 13 57 0.0 3.2 0.00 0.00 0.00 87 1024.7
20260901111743 13 27 6.4 6.4 0.00 0.00 0.00 87 1024.9
20260901111244 13 115 1.6 3.2 0.00 0.00 0.00 87 1024.6
20260901110744 13 128 1.6 3.2 0.00 0.00 0.00 87 1024.4
20260901110243 13 120 3.2 4.8 0.00 0.00 0.00 87 1024.7
20260901105743 13 88 6.4 6.4 0.00 0.00 0.00 87 1024.6
20260901105241 13 74 3.2 6.4 0.00 0.00 0.00 86 1024.5
20260901104742 13 81 1.6 3.2 0.00 0.00 0.00 85 1024.5
20260901104241 13 103 3.2 3.2 0.00 0.00 0.00 85 1024.4
20260901103741 13 111 3.2 3.2 0.00 0.00 0.00 85 1024.5
20260901103242 13 112 1.6 3.2 0.00 0.00 0.00 85 1024.4
20260901102741 13 77 3.2 4.8 0.00 0.00 0.00 85 1024.4
20260901102241 13 81 0.0 1.6 0.00 0.00 0.00 85 1024.4
20260901101741 13 38 0.0 1.6 0.00 0.00 0.00 85 1024.4
20260901101241 13 37 0.0 0.0 0.00 0.00 0.00 85 1024.6
20260901100741 13 77 3.2 4.8 0.00 0.00 0.00 85 1024.3
20260901100242 14 99 6.4 6.4 0.00 0.00 0.00 85 1024.3
20260901095741 14 84 1.6 3.2 0.00 0.00 0.00 84 1024.4
20260901095241 14 114 0.0 3.2 0.00 0.00 0.00 84 1024.0
20260901094741 14 76 0.0 3.2 0.00 0.00 0.00 84 1023.9
20260901094241 14 88 4.8 6.4 0.00 0.00 0.00 85 1023.8
20260901093741 14 87 4.8 4.8 0.00 0.00 0.00 83 1023.8
20260901093241 15 12 4.8 4.8 0.00 0.00 0.00 82 1023.9
20260901092742 15 45 1.6 3.2 0.00 0.00 0.00 82 1023.9
20260901092241 15 50 4.8 4.8 0.00 0.00 0.00 82 1024.0
20260901091741 15 129 0.0 0.0 0.00 0.00 0.00 82 1023.9
20260901091242 15 24 3.2 4.8 0.00 0.00 0.00 82 1023.9
20260901090741 15 78 1.6 3.2 0.00 0.00 0.00 81 1023.8
20260901090241 15 88 3.2 4.8 0.00 0.00 0.00 81 1023.8
20260901085741 15 71 4.8 6.4 0.00 0.00 0.00 80 1023.9
20260901085241 15 62 0.0 0.0 0.00 0.00 0.00 80 1023.8
20260901084741 15 48 1.6 1.6 0.00 0.00 0.00 80 1023.8
20260901084241 15 126 1.6 3.2 0.00 0.00 0.00 79 1023.8
20260901083741 15 91 3.2 4.8 0.00 0.00 0.00 79 1023.8
20260901083242 15 88 6.4 6.4 0.00 0.00 0.00 80 1023.4
20260901082742 15 82 1.6 3.2 0.00 0.00 0.00 80 1023.6
20260901082241 15 132 3.2 3.2 0.00 0.00 0.00 79 1023.8
20260901081741 15 69 3.2 3.2 0.00 0.00 0.00 79 1023.5
20260901081241 15 89 0.0 3.2 0.00 0.00 0.00 79 1023.7
20260901080742 15 45 3.2 4.8 0.00 0.00 0.00 78 1023.7
20260901080241 15 93 4.8 4.8 0.00 0.00 0.00 78 1023.8
20260901075741 15 87 1.6 3.2 0.00 0.00 0.00 78 1023.5
20260901075241 16 50 0.0 1.6 0.00 0.00 0.00 78 1023.8
20260901074741 16 74 3.2 4.8 0.00 0.00 0.00 78 1023.6
20260901074241 16 89 6.4 6.4 0.00 0.00 0.00 78 1023.8
20260901073741 16 112 3.2 3.2 0.00 0.00 0.00 76 1023.5
20260901073241 16 191 0.0 3.2 0.00 0.00 0.00 75 1023.7
20260901072741 16 184 0.0 3.2 0.00 0.00 0.00 76 1023.7
20260901072241 16 266 0.0 6.4 0.00 0.00 0.00 76 1023.8
20260901071741 16 249 3.2 6.4 0.00 0.00 0.00 76 1023.9
20260901071242 16 248 1.6 3.2 0.00 0.00 0.00 76 1024.2
20260901070741 16 212 0.0 3.2 0.00 0.00 0.00 76 1023.9
20260901070241 16 218 0.0 1.6 0.00 0.00 0.00 76 1023.6
20260901065741 16 149 1.6 3.2 0.00 0.00 0.00 75 1023.3
20260901065241 16 128 3.2 3.2 0.00 0.00 0.00 75 1023.5
20260901064741 16 153 1.6 3.2 0.00 0.00 0.00 75 1023.2
20260901064241 16 158 1.6 3.2 0.00 0.00 0.00 74 1023.3
20260901063741 17 150 0.0 3.2 0.00 0.00 0.00 74 1023.7
20260901063241 17 244 3.2 3.2 0.00 0.00 0.00 74 1023.4
20260901062741 17 218 3.2 4.8 0.00 0.00 0.00 74 1023.6
20260901062242 17 252 4.8 8.0 0.00 0.00 0.00 74 1023.5
20260901061742 17 262 3.2 8.0 0.00 0.00 0.00 74 1023.5
20260901061241 17 261 6.4 8.0 0.00 0.00 0.00 74 1023.4
20260901060741 17 233 0.0 6.4 0.00 0.00 0.00 74 1023.6
20260901060240 17 215 3.2 6.4 0.00 0.00 0.00 74 1023.4
20260901055739 17 200 3.2 6.4 0.00 0.00 0.00 73 1023.2
20260901055239 17 210 0.0 3.2 0.00 0.00 0.00 72 1023.0
20260901054739 17 248 1.6 4.8 0.00 0.00 0.00 72 1023.2
20260901054239 17 351 3.2 9.7 0.00 0.00 0.00 72 1023.3
20260901053740 17 323 0.0 4.8 0.00 0.00 0.00 72 1023.5
20260901053239 17 140 4.8 4.8 0.00 0.00 0.00 72 1023.6
20260901052739 17 134 3.2 4.8 0.00 0.00 0.00 73 1023.6
20260901052239 18 161 1.6 3.2 0.00 0.00 0.00 72 1023.6
20260901051740 18 147 1.6 3.2 0.00 0.00 0.00 72 1023.8
20260901051239 18 227 1.6 4.8 0.00 0.00 0.00 73 1023.8
20260901050739 18 256 1.6 8.0 0.00 0.00 0.00 72 1023.9
20260901050239 18 246 3.2 6.4 0.00 0.00 0.00 73 1024.1
20260901045739 18 269 3.2 6.4 0.00 0.00 0.00 74 1023.8
20260901045239 18 172 0.0 3.2 0.00 0.00 0.00 75 1024.2
20260901044740 18 75 0.0 3.2 0.00 0.00 0.00 74 1024.0
20260901044239 18 135 0.0 3.2 0.00 0.00 0.00 73 1024.3
20260901043739 18 258 3.2 6.4 0.00 0.00 0.00 73 1024.3
20260901043238 18 232 3.2 6.4 0.00 0.00 0.00 71 1024.3
20260901042738 18 167 0.0 3.2 0.00 0.00 0.00 70 1024.4
20260901042236 18 209 3.2 4.8 0.00 0.00 0.00 69 1024.6
20260901041736 18 215 3.2 6.4 0.00 0.00 0.00 69 1024.6
20260901041239 19 218 0.0 3.2 0.00 0.00 0.00 68 1024.6
20260901040736 19 222 0.0 8.0 0.00 0.00 0.00 67 1024.5
20260901040237 19 246 1.6 4.8 0.00 0.00 0.00 68 1024.5
20260901035737 19 232 3.2 6.4 0.00 0.00 0.00 68 1024.6
20260901035236 19 196 3.2 4.8 0.00 0.00 0.00 70 1024.6
20260901034736 19 113 0.0 3.2 0.00 0.00 0.00 72 1024.6
20260901034237 19 97 1.6 9.7 0.00 0.00 0.00 73 1024.8
20260901033736 19 86 4.8 4.8 0.00 0.00 0.00 73 1024.7
20260901033236 19 86 3.2 4.8 0.00 0.00 0.00 72 1024.9
20260901032737 19 46 1.6 1.6 0.00 0.00 0.00 72 1025.0
20260901032237 19 301 1.6 3.2 0.00 0.00 0.00 71 1025.3
20260901031736 19 269 0.0 1.6 0.00 0.00 0.00 69 1025.0
20260901031236 19 162 0.0 1.6 0.00 0.00 0.00 69 1024.8
20260901030736 19 134 1.6 3.2 0.00 0.00 0.00 68 1024.9
20260901030236 19 50 1.6 1.6 0.00 0.00 0.00 70 1025.3
20260901025737 19 48 0.0 0.0 0.00 0.00 0.00 70 1025.4
20260901025236 19 31 1.6 3.2 0.00 0.00 0.00 70 1025.2
20260901024736 20 109 0.0 1.6 0.00 0.00 0.00 70 1025.4
20260901024236 20 123 0.0 3.2 0.00 0.00 0.00 70 1025.1
20260901023737 20 93 4.8 4.8 0.00 0.00 0.00 69 1025.3
20260901023236 20 113 1.6 3.2 0.00 0.00 0.00 65 1025.1
20260901022736 20 84 1.6 3.2 0.00 0.00 0.00 67 1024.9
20260901022236 20 51 3.2 3.2 0.00 0.00 0.00 67 1025.0
20260901021736 20 68 1.6 3.2 0.00 0.00 0.00 67 1025.1
20260901021236 21 75 4.8 6.4 0.00 0.00 0.00 68 1025.0
20260901020736 21 91 3.2 4.8 0.00 0.00 0.00 65 1024.9
20260901020236 21 34 3.2 4.8 0.00 0.05 0.00 60 1024.9
20260901015735 21 45 1.6 1.6 0.00 0.05 0.00 60 1024.7
20260901015236 21 14 0.0 3.2 0.00 0.05 0.00 60 1024.8
20260901014735 22 142 0.0 1.6 0.00 0.05 0.00 60 1024.9
20260901014235 22 142 1.6 3.2 0.00 0.05 0.00 60 1024.8
20260901013735 22 147 3.2 4.8 0.00 0.05 0.00 59 1024.8
20260901013236 22 108 3.2 4.8 0.00 0.05 0.00 59 1024.9
20260901012735 22 120 6.4 6.4 0.00 0.05 0.00 58 1024.8
20260901012235 23 122 4.8 6.4 0.00 0.05 0.00 57 1024.9
20260901011735 23 113 3.2 6.4 0.00 0.05 0.00 57 1024.7
20260901011235 23 134 4.8 6.4 0.00 0.05 0.00 57 1024.8
20260901010735 23 125 6.4 6.4 0.00 0.05 0.00 57 1024.7
20260901010235 23 151 3.2 6.4 0.00 0.86 0.00 58 1024.6
20260901005735 23 156 4.8 6.4 0.00 0.86 0.00 59 1025.0
20260901005236 23 134 4.8 6.4 0.00 0.86 0.00 59 1025.2
20260901004735 23 137 6.4 8.0 0.00 0.86 0.00 58 1025.0
20260901004235 23 149 4.8 6.4 0.00 0.86 0.00 58 1025.0
20260901003735 24 211 1.6 4.8 0.00 0.86 0.00 57 1025.0
20260901003235 24 148 4.8 6.4 0.00 0.86 0.00 58 1025.1
20260901002735 24 125 3.2 3.2 0.00 0.86 0.00 57 1024.5
20260901002235 24 151 6.4 6.4 0.00 0.86 0.00 58 1024.7
20260901001735 24 173 0.0 6.4 0.00 0.86 0.00 58 1024.9
20260901001235 24 166 4.8 4.8 0.00 0.86 0.00 57 1024.9
20260901000735 24 179 4.8 6.4 0.00 0.86 0.00 57 1024.7
20260901000235 24 121 6.4 11.3 0.00 0.86 0.00 57 1024.8
20260831235735 24 113 6.4 6.4 0.00 0.86 0.00 57 1024.7
20260831235235 24 133 4.8 6.4 0.00 0.86 0.00 57 1024.8
20260831234736 24 170 3.2 6.4 0.00 0.86 0.00 57 1024.9
20260831234235 24 162 9.7 9.7 0.00 0.86 0.00 58 1024.7
20260831233735 24 129 4.8 6.4 0.00 0.86 0.00 58 1024.8
20260831233235 24 105 6.4 8.0 0.00 0.86 0.00 57 1024.9
20260831232734 24 123 4.8 6.4 0.00 0.86 0.00 57 1024.9
20260831232234 24 155 4.8 9.7 0.00 0.86 0.00 58 1024.9
20260831231734 24 123 6.4 11.3 0.00 0.86 0.00 58 1024.8
20260831231235 24 148 12.9 14.5 0.00 0.86 0.00 58 1025.1
20260831230735 24 176 6.4 9.7 0.00 0.86 0.00 57 1025.1
20260831230234 24 171 4.8 9.7 0.00 0.91 0.00 58 1025.0
20260831225734 24 116 8.0 12.9 0.00 0.91 0.00 57 1025.3
20260831225234 24 160 6.4 9.7 0.00 0.91 0.00 57 1025.1
20260831224735 24 111 9.7 11.3 0.00 0.91 0.00 58 1025.1
20260831224235 23 112 3.2 8.0 0.00 0.91 0.00 57 1025.3
20260831223734 23 126 6.4 6.4 0.00 0.91 0.00 55 1025.1
20260831223234 24 70 8.0 9.7 0.00 0.91 0.00 56 1025.2
20260831222734 24 153 8.0 9.7 0.00 0.91 0.00 56 1025.1
20260831222233 24 160 6.4 9.7 0.00 0.91 0.00 55 1025.1
20260831221733 24 117 4.8 8.0 0.00 0.91 0.00 56 1025.1
20260831221233 24 97 3.2 4.8 0.00 0.91 0.00 57 1025.2
20260831220733 24 173 3.2 8.0 0.00 0.91 0.00 56 1025.3
20260831220234 24 139 6.4 6.4 0.00 1.27 0.00 55 1025.4
20260831215732 24 158 6.4 9.7 0.00 1.27 0.00 56 1025.3
20260831215233 24 175 4.8 9.7 0.00 1.27 0.00 56 1025.6
20260831214733 24 164 1.6 4.8 0.00 1.27 0.00 55 1025.6
20260831214232 24 124 4.8 6.4 0.00 1.27 0.00 55 1025.2
20260831213733 24 154 9.7 9.7 0.00 1.27 0.00 55 1025.4
20260831213232 24 181 1.6 4.8 0.00 1.27 0.00 55 1025.7
20260831212732 24 210 1.6 4.8 0.00 1.27 0.00 54 1025.8
20260831212232 24 176 4.8 8.0 0.00 1.27 0.00 56 1026.0
20260831211732 24 144 6.4 12.9 0.00 1.27 0.00 54 1026.0
20260831211232 24 104 4.8 4.8 0.00 1.27 0.00 56 1026.1
20260831210732 23 66 8.0 8.0 0.00 1.27 0.00 56 1026.3
20260831210232 23 102 9.7 9.7 0.00 1.27 0.00 55 1026.3
20260831205732 23 108 8.0 12.9 0.00 1.27 0.00 56 1026.1
20260831205233 23 143 8.0 12.9 0.00 1.27 0.00 57 1026.2
20260831204732 23 168 9.7 12.9 0.00 1.27 0.00 57 1026.3
20260831204232 23 111 6.4 9.7 0.00 1.27 0.00 57 1026.3
20260831203732 23 127 6.4 9.7 0.00 1.27 0.00 56 1026.7
20260831203232 23 156 12.9 12.9 0.00 1.27 0.00 57 1026.8
20260831202733 23 148 8.0 12.9 0.00 1.27 0.00 56 1027.0
20260831202232 23 135 14.5 19.3 0.00 1.27 0.00 56 1026.9
20260831201732 23 126 6.4 9.7 0.00 1.27 0.00 55 1026.9
20260831201232 23 87 1.6 9.7 0.00 1.27 0.00 54 1026.7
20260831200732 23 69 6.4 12.9 0.00 1.27 0.00 55 1027.0
20260831200232 23 109 8.0 11.3 0.00 1.27 0.00 55 1027.1
20260831195733 23 48 6.4 11.3 0.00 1.27 0.00 55 1027.1
20260831195232 23 86 8.0 11.3 0.00 1.27 0.00 56 1027.4
20260831194732 23 85 8.0 11.3 0.00 1.27 0.00 56 1027.4
20260831194232 23 129 16.1 16.1 0.00 1.27 0.00 57 1027.6
20260831193732 23 107 8.0 12.9 0.00 1.27 0.00 56 1027.9
20260831193232 23 105 6.4 14.5 0.00 1.27 0.00 55 1027.5
20260831192733 23 114 6.4 12.9 0.00 1.27 0.00 58 1027.8
20260831192232 23 105 6.4 14.5 0.00 1.27 0.00 59 1027.9
20260831191733 22 92 4.8 12.9 0.00 1.27 0.00 59 1028.1
20260831191232 22 106 9.7 14.5 0.00 1.27 0.00 59 1027.7
20260831190732 22 115 16.1 19.3 0.00 1.27 0.00 59 1027.9
20260831190233 23 70 8.0 12.9 0.00 1.27 0.00 53 1027.8
20260831185732 23 78 8.0 16.1 0.00 1.27 0.00 57 1027.5
20260831185232 23 104 9.7 14.5 0.00 1.27 0.00 59 1027.7
20260831184732 23 155 9.7 16.1 0.00 1.27 0.00 55 1027.5
20260831184232 23 110 6.4 8.0 0.00 1.27 0.00 59 1027.9
20260831183732 23 104 6.4 14.5 0.00 1.27 0.00 59 1028.0
20260831183232 23 61 6.4 12.9 0.00 1.27 0.00 58 1028.0
20260831182733 22 92 1.6 4.8 0.00 1.27 0.00 59 1028.2
20260831182232 23 109 9.7 14.5 0.00 1.27 0.00 58 1028.1
20260831181732 23 70 8.0 12.9 0.00 1.27 0.00 58 1028.0
20260831181232 22 221 3.2 8.0 0.00 1.27 0.00 61 1028.3
20260831180732 22 154 9.7 12.9 0.00 1.27 0.00 59 1028.2
20260831180232 23 123 6.4 6.4 0.00 1.27 0.00 60 1028.3
20260831175732 23 165 3.2 6.4 0.00 1.27 0.00 59 1028.5
20260831175232 22 22 6.4 6.4 0.00 1.27 0.00 63 1028.4
20260831174732 22 303 3.2 3.2 0.00 1.27 0.00 61 1028.7
20260831174233 22 255 0.0 4.8 0.00 1.27 0.00 63 1028.5
20260831173732 22 122 4.8 6.4 0.00 1.27 0.00 63 1028.6
20260831173233 22 111 3.2 8.0 0.00 1.27 0.00 63 1028.7
20260831172732 22 116 6.4 9.7 0.00 1.27 0.00 64 1028.6
20260831172232 21 48 0.0 3.2 0.00 1.27 0.00 64 1028.5
20260831171733 21 148 3.2 6.4 0.00 1.27 0.00 64 1028.9
20260831171232 21 139 4.8 9.7 0.00 1.27 0.00 65 1028.9
20260831170732 21 150 3.2 6.4 0.00 1.27 0.00 68 1028.8
20260831170232 20 87 4.8 8.0 0.00 1.27 0.00 70 1029.0
20260831165732 20 96 1.6 3.2 0.00 1.27 0.00 69 1028.9
20260831165232 20 82 6.4 9.7 0.00 1.27 0.00 71 1029.1
20260831164732 20 75 3.2 6.4 0.00 1.27 0.00 71 1029.2
20260831164232 19 98 4.8 8.0 0.00 1.27 0.00 71 1029.2
20260831163732 19 93 3.2 6.4 0.00 1.27 0.00 72 1029.2
20260831163232 19 92 6.4 9.7 0.00 1.27 0.00 73 1029.0
20260831162732 18 70 3.2 6.4 0.00 1.27 0.00 74 1028.7